www.pogodaiklimat.ru

Погода и климат >> Архив погоды >> Колумбия >> Neiva


ПОГОДА в Neiva

  • Прогноз погоды в Neiva
  • Монитор погоды в Neiva
  • Климат города

АРХИВ ПОГОДЫ в Neiva

Время (UTC), дата Ветер
(напр.,м/с)
 
Видим.   Явления Облачность Т
(С)
Тd
(С)
f
(%)
Тe
(С)
Тes
(С)
Комфортность P
(гПа)
Po
(гПа)
Тmin
(С)
Tmax
(С)
R
(мм)
R24
(мм)
S
(см)
00 14.09 С 2 9000 м мгла 10/1 1350 м
[Sc diur, vesp Ac As]
+31.5 +17.4 43 +35 +35 очень
душно
1003.3 954.6 +34.8
03 14.09 Ю 1 9000 м осадки на расстоянии 9/3 1200 м
[Cb calv Ac As]
+26.4 +18.6 62 +31 +31 душно 1007.9 958.2
12 14.09 штиль 0 8000 м в посл. час морось 9/6 100 м
[St Ac As]
+22.9 +21.9 94 +31 +31 очень
душно
1010.2 959.8 +22.7 7
15 14.09 Ю 2 8000 м мгла 9/6 570 м
[Cu hum Ac trans]
+26.2 +21.0 73 +33 +37 очень
душно
1010.7 960.8
18 14.09 ЮВ 1 12 км осадки на расстоянии 9/4 1000 м
[Cu med, cong Ac As]
+30.8 +20.0 53 +37 +43 очень
душно
1006.6 957.6
21 14.09 Ю 4 12 км осадки на расстоянии {морось} 9/1 1000 м
[Cu med, cong Ac As]
+29.7 +18.7 52 +35 +36 очень
душно
1003.7 954.7
00 15.09 штиль 0 14 км мгла {морось} 6/1 1200 м
[Sc diur, vesp Ac trans Cs]
+27.0 +19.5 64 +33 +33 очень
душно
1004.8 955.3 +31.5 0.3
03 15.09 штиль 0 10 км мгла 9/1 1050 м
[Cu hum Ac trans Cs]
+24.6 +20.6 78 +31 +31 очень
душно
1008.3 958.2
12 15.09 штиль 0 4000 м морось {дождь} 10/3 300 м
[St Ac As]
+20.8 +20.2 96 +25 +26 комфорт 1011.8 960.9 +20.6 13
15 15.09 штиль 0 14 км {морось} 9/4 300 м
[St Ac trans]
+24.5 +20.0 76 +30 +37 очень
душно
1012.7 962.4
18 15.09 Ю 2 14 км осадки на расстоянии {морось} 9/4 600 м
[Cu med, cong Ac As]
+29.6 +18.5 51 +34 +40 очень
душно
1008.1 958.8 0.2
21 15.09 штиль 0 16 км осадки на расстоянии 9/1 900 м
[Cb calv Ac As Cs]
+32.0 +18.1 44 +37 +40 очень
душно
1003.3 954.6
00 16.09 штиль 0 18 км 10/1 1050 м
[Sc diur, vesp Ac As]
+29.3 +20.6 59 +36 +36 очень
душно
1006.1 956.9 +32.0
12 16.09 штиль 0 10 км морось 10/8 180 м
[St Ac As]
+22.3 +21.3 94 +29 +29 очень
душно
1012.1 961.4 +20.8 11
15 16.09 штиль 0 9000 м осадки на расстоянии {морось} 10/3 270 м
[St Ac As]
+23.4 +21.3 88 +31 +36 очень
душно
1013.8 963.3
18 16.09 Ю 3 17 км {морось} 9/4 500 м
[Cu hum Ac As]
+27.0 +19.6 64 +33 +37 очень
душно
1010.9 961.0 5
21 16.09 Ю 1 18 км 5/1 1000 м
[Cu med, cong Ac trans]
+30.1 +18.2 49 +35 +39 очень
душно
1006.4 957.3
00 17.09 штиль 0 18 км 3/1 1200 м
[Cu hum Ac trans Cs]
+27.7 +20.4 64 +34 +34 очень
душно
1007.7 958.2 +30.1
12 17.09 штиль 0 18 км 1/0
[Cs]
+21.6 +18.8 84 +26 +28 душно 1011.4 960.7 +20.6 5
15 17.09 ЮЗ 3 18 км 1/1 700 м
[Cu hum Cs]
+28.6 +16.0 46 +32 +44 душно 1010.4 960.8
18 17.09 Ю 2 18 км 3/1 1050 м
[Cu med, cong Ac cast Ci sp]
+33.0 +16.1 36 +36 +52 опасность
солнечного
удара
1004.6 956.0
21 17.09 Ю 1 18 км 6/1 1200 м
[Cu hum Ac cast Cs]
+36.4 +14.3 27 +37 +42 очень
жарко
1000.9 953.0
00 18.09 В 3 18 км 9/1 1200 м
[Cu med, cong Ac As Cs]
+33.3 +14.4 32 +35 +35 душно 1003.0 954.5 +37.0
03 18.09 штиль 0 18 км 10/1 1050 м
[Cu hum Ac As Cs]
+30.1 +17.5 47 +34 +34 очень
душно
1006.7 957.6
12 18.09 штиль 0 18 км 5/1 1000 м
[Cu med, cong Ac trans Cs]
+25.4 +19.5 70 +31 +32 очень
душно
1009.7 959.7 +21.6
15 18.09 штиль 0 18 км 4/3 1000 м
[Cu med, cong Ac trans Cs]
+31.1 +20.4 53 +38 +52 опасность
солнечного
удара
1009.5 960.4
18 18.09 Ю 2 18 км 5/3 1350 м
[Cu med, cong Ac trans]
+35.2 +16.3 33 +38 +50 очень
душно
1004.2 956.0
21 18.09 Ю 3 18 км 6/3 1500 м
[Cu med, cong Ac trans Cs]
+36.6 +13.5 25 +37 +40 очень
жарко
999.9 952.1
00 19.09 Ю 1 18 км 6/1 1500 м
[Cu med, cong Ac trans Cs]
+32.8 +16.6 38 +36 +36 очень
душно
1002.1 953.7 +36.9
03 19.09 Ю 1 18 км 3/0
[Ac trans Cs]
+29.6 +17.1 47 +33 +33 душно 1005.8 956.6
12 19.09 штиль 0 18 км 9/1 1000 м
[Cu med, cong Ac trans Cs]
+25.5 +18.3 64 +30 +31 душно 1009.7 959.7 +23.9
15 19.09 штиль 0 18 км 5/1 1200 м
[Cu med, cong Ac trans Ci fib]
+30.5 +18.2 48 +35 +51 опасность
солнечного
удара
1009.0 959.9
18 19.09 штиль 0 18 км 8/1 1350 м
[Cu med, cong Ac trans]
+34.0 +15.6 33 +36 +49 душно 1004.6 956.2
21 19.09 Ю 4 18 км 9/1 1350 м
[Cu med, cong Ac trans Cs]
+31.8 +17.6 43 +36 +38 очень
душно
1002.4 953.7
00 20.09 штиль 0 18 км в посл. час морось 9/1 1200 м
[Cu med, cong Ac As]
+29.6 +18.5 51 +34 +34 очень
душно
1005.4 956.3 +35.8 0.1
03 20.09 штиль 0 18 км 10/1 1200 м
[Cu hum Ac As]
+28.8 +18.5 54 +34 +34 очень
душно
1007.2 957.8
12 20.09 штиль 0 18 км 6/1 1000 м
[Cb calv As op Cs]
+25.6 +18.7 66 +31 +32 очень
душно
1009.4 959.4 +24.4 0.1
15 20.09 ЮВ 1 18 км 3/1 1200 м
[Cu hum Ac trans Cs]
+31.8 +17.0 41 +35 +51 опасность
солнечного
удара
1009.1 960.1
18 20.09 Ю 2 18 км 3/3 1350 м
[Cu hum]
+36.4 +15.0 28 +38 +52 опасность
солнечного
удара
1003.8 955.8
21 20.09 В 2 18 км 5/5 1500 м
[Cu Sc]
+36.3 +13.0 25 +37 +39 очень
жарко
1000.7 952.8

 

Местоположение метеостанции Neiva (Колумбия): широта 2.97 долгота -75.30 высота над уровнем моря 443 м.

В архиве по умолчанию представлена погода в Neiva за последнюю неделю. Архивные данные за месяц целиком и за предыдущие месяцы, начиная с января 2011 года, Вы можете получить, выбрав интересующий диапазон дат из раскрывающегося списка и нажав кнопку "Ввод!".


*Определитесь, кто Вы:
робот инопланетянин человек

Внимание! Время в таблицах - всемирное. Для получения местного времени необходимо прибавить поправку, которая в Neiva равна -5 ч.

Смотрите также архив погоды в соседних городах и на ближайших метеорологических станциях:

Погода в Cali (Колумбия) (136 км)
Погода в Ibague (Колумбия) (163 км)
Погода в Armenia (Колумбия) (176 км)
Погода в Pereira (Колумбия) (211 км)
Погода в Villavicencio (Колумбия) (230 км)
Погода в Bogota (Колумбия) (232 км)
Погода в Pasto (Колумбия) (278 км)
Погода в Quibdo (Колумбия) (339 км)
Погода в Rionegro (Колумбия) (352 км)
Погода в Ipiales (Колумбия) (353 км)

Пояснения к столбцам:

Ветер - указаны скорость ветра в м/с - средняя за 10 мин, порывы в срок и между сроками (в фигурных скобках) и направление, откуда дует ветер: С - северный, СВ - северо-восточный, В - восточный, ЮВ - юго-восточный, Ю - южный, ЮЗ - юго-западный, З - западный, СЗ - северо-западный.
Видимость - горизонтальная дальность видимости в метрах или километрах. При видимости от 1 до 10 км при отсутствии осадков обычно наблюдается дымка, при ухудшении видимости до 1 км и менее - туман. В сухую погоду видимость может ухудшаться дымом, пылью или мглою.
Явления - указаны атмосферные явления, наблюдавшиеся в срок или в последний час перед сроком; фигурными скобками обозначены явления, наблюдавшиеся между сроками (за 1-3 часа до срока); квадратными скобками обозначены град или гололедные отложения с указанием их диаметра в мм.
Облачность - указаны через наклонную черту общая и нижняя облачность в баллах и высота нижней границы облаков в метрах; квадратными скобками обозначены формы облаков: Ci - перистые, Cs - перисто-слоистые, Cc - перисто-кучевые, Ac - высококучевые, As - высокослоистые, Sc - слоисто-кучевые, Ns - слоисто-дождевые, Cu - кучевые, Cb - кучево-дождевые. Подробнее классификацию облаков см. в Атласе облаков (PDF).
T - Температура воздуха - температура, измеренная на высоте 2 м над землей.
Td - Температура точки росы - температура, при понижении до которой содержащийся в воздухе водяной пар достигнет насыщения.
f - Относительная влажность воздуха - влажноcть воздуха, измеренная на высоте 2 м над землей.
Te - Эффективная температура - температура, которую ощущает одетый по сезону человек в тени. Характеристика душности погоды. При расчете учитывается влияние влажности воздуха и скорости ветра на теплоощущения человека.
Tes - Эффективная температура на солнце - температура, которую ощущает человек, с поправкой на солнечный нагрев. Характеристика знойности погоды. Зависит от высоты солнца над горизонтом, облачности и скорости ветра. Ночью, в пасмурную погоду, а также при ветре 12 м/с и более поправка равна нулю.
P - Атмосферное давление - приведенное к уровню моря атмосферное давление.
Po - Атмосферное давление - измеренное на уровне метеостанции атмосферное давление.
Tmin - Минимальная температура - минимум температуры воздуха на высоте 2 м над землей.
Tmax - Максимальная температура - максимум температуры воздуха на высоте 2 м над землей.
R - Количество осадков - Количество выпавших осадков за период времени, мм. При наведении курсора мыши на число - период времени, за который выпало указанное количество осадков.
R24 - Количество осадков - Количество выпавших осадков за 24 часа, мм.
S - Снежный покров - Высота снежного покрова, см. При наведении курсора мыши на число - состояние снежного покрова и степень покрытия местности в баллах.